"Pseudo-MPEC" for P1130Eo

Created 2020 Aug 15 10:07:16 UT using Find_Orb

Click here for an explanation of pseudo-MPECs

 
 Astrometry: 
     P1130Eo  C2020 07 22j@QeqkR.ED)2iAstrometry63g]r@vF:?Dm7pO_%s%V^P6^GZAY#F51
     P1130Eo  C2020 07 221lEI?EeZcP2a9Z6rredacted;n8.-9B(rE:click?Dc7dbDfNl@OF51
     P1130Eo  C2020 07 22-Z/ARE9G^G.wi6Ji*C3mZw/]hereuj#$6C-DWe0a%1fory?Qp/U9F51
     P1130Eo  C2020 07 22:xa2$qoS;L1QJu'Z;7B@HuALJQ'ck%jR8explanationH#aUhgp8F51
     P1130Eo ^C2020 07 24.50237020 49 21.539-28 05 16.22   ~7OMM 21.63GVNEOCP568
     P1130Eo ^C2020 07 24.50354520 49 21.389-28 05 15.52   ~7OMM 21.71GVNEOCP568
     P1130Eo ^C2020 07 24.50472520 49 21.231-28 05 14.74   ~7OMM 21.64GVNEOCP568

Station data:
(568) Mauna Kea  (N19.826116 W155.472200)  US/Hawaii.
(F51) Pan-STARRS 1, Haleakala  (N20.707235 W156.255910)  US/Hawaii.
   Observers N. Primak, A. Schultz, S. Watters, J. Thiel, T. Goggia. Measurer
   PS1 Science Consortium. 1.8-m Ritchey-Chrétien + CCD.

Orbital elements:  P1130Eo
   Perihelion 2021 Jul 14.317319 +/- 249 TT =  7:36:56 (JD 2459409.817319)
Epoch 2020 Jul 24.0 TT = JDT 2459054.5   Earth MOID: 0.7755   AutoNEOCP
M 222.34155756 +/- 120              (J2000 ecliptic)
n   0.38742395 +/- 0.138            Peri.  130.36413 +/- 70
a   1.86356723 +/- 0.443            Node   315.75909 +/- 5.4
e   0.0728895 +/- 0.199             Incl.   23.14379 +/- 14
P   2.54/929.20d           H 20.3   G  0.15   U 11.4  SR
q 1.72773258 +/- 0.438    Q 1.99940188 +/- 1.65
From 7 observations 2020 July 22-24; mean residual 0".34
Residuals in arcseconds: 
200722 F51  .77+  .26+    200722 F51  .63-  .36-    200724 568  .26-  .09+    
200722 F51  .26+  .21+    200724 568  .23+  .06-    
200722 F51  .41-  .11-    200724 568  .04+  .02-    

Ephemerides (geocentric):
Date (UTC) HH   RA              Dec         delta   r     elong  mag " sig PA
---- -- -- --  -------------   -----------  ------ ------ -----  --- ---- ---
2020 08 15 10  20 10 45.322   -23 50 20.61  .98315 1.9546 156.6 22.4 7930  33
2020 08 15 11  20 10 41.615   -23 49 47.33  .98331 1.9546 156.6 22.4 7959  33
2020 08 15 12  20 10 37.912   -23 49 14.04  .98347 1.9545 156.5 22.4 7989  33
2020 08 15 13  20 10 34.213   -23 48 40.75  .98363 1.9545 156.5 22.4 8019  33
2020 08 15 14  20 10 30.518   -23 48 07.45  .98379 1.9545 156.4 22.4 8049  33
2020 08 15 15  20 10 26.827   -23 47 34.14  .98395 1.9545 156.4 22.4 8080  33
2020 08 15 16  20 10 23.141   -23 47 00.82  .98411 1.9544 156.3 22.4 8110  33
2020 08 15 17  20 10 19.459   -23 46 27.50  .98427 1.9544 156.3 22.4 8140  33
2020 08 15 18  20 10 15.781   -23 45 54.16  .98443 1.9544 156.2 22.4 8170  33
2020 08 15 19  20 10 12.107   -23 45 20.82  .98459 1.9543 156.2 22.4 8201  33
2020 08 15 20  20 10 08.437   -23 44 47.48  .98475 1.9543 156.1 22.4 8231  33
2020 08 15 21  20 10 04.771   -23 44 14.12  .98491 1.9543 156.1 22.4 8261  33
2020 08 15 22  20 10 01.110   -23 43 40.76  .98508 1.9543 156.0 22.4 8292  33
2020 08 15 23  20 09 57.453   -23 43 07.40  .98524 1.9542 156.0 22.4 8323  33
2020 08 16 00  20 09 53.800   -23 42 34.02  .98540 1.9542 155.9 22.4 8353  33
2020 08 16 01  20 09 50.152   -23 42 00.64  .98557 1.9542 155.9 22.4 8384  33
2020 08 16 02  20 09 46.507   -23 41 27.25  .98573 1.9542 155.8 22.4 8415  33
2020 08 16 03  20 09 42.867   -23 40 53.85  .98590 1.9541 155.8 22.4 8445  33
2020 08 16 04  20 09 39.231   -23 40 20.45  .98606 1.9541 155.7 22.4 8476  33
2020 08 16 05  20 09 35.600   -23 39 47.04  .98623 1.9541 155.7 22.4 8507  33
2020 08 16 06  20 09 31.972   -23 39 13.62  .98639 1.9540 155.7 22.4 8538  33
2020 08 16 07  20 09 28.349   -23 38 40.20  .98656 1.9540 155.6 22.4 8569  33
2020 08 16 08  20 09 24.730   -23 38 06.77  .98672 1.9540 155.6 22.4 8600  33
2020 08 16 09  20 09 21.116   -23 37 33.33  .98689 1.9540 155.5 22.4 8631  33
2020 08 16 10  20 09 17.506   -23 36 59.89  .98706 1.9539 155.5 22.4 8662  33
2020 08 16 11  20 09 13.900   -23 36 26.44  .98723 1.9539 155.4 22.4 8694  33
2020 08 16 12  20 09 10.298   -23 35 52.98  .98740 1.9539 155.4 22.4 8725  33
2020 08 16 13  20 09 06.701   -23 35 19.52  .98756 1.9539 155.3 22.4 8756  33
2020 08 16 14  20 09 03.107   -23 34 46.05  .98773 1.9538 155.3 22.5 8788  33
2020 08 16 15  20 08 59.519   -23 34 12.58  .98790 1.9538 155.2 22.5 8819  33
2020 08 16 16  20 08 55.934   -23 33 39.10  .98807 1.9538 155.2 22.5 8851  33
2020 08 16 17  20 08 52.354   -23 33 05.61  .98824 1.9537 155.1 22.5 8882  33
2020 08 16 18  20 08 48.778   -23 32 32.11  .98841 1.9537 155.1 22.5 8914  33
2020 08 16 19  20 08 45.207   -23 31 58.61  .98858 1.9537 155.0 22.5 8946  33
2020 08 16 20  20 08 41.640   -23 31 25.11  .98876 1.9537 155.0 22.5 8977  33
2020 08 16 21  20 08 38.077   -23 30 51.59  .98893 1.9536 154.9 22.5 9009  33
2020 08 16 22  20 08 34.519   -23 30 18.08  .98910 1.9536 154.9 22.5 9041  33
2020 08 16 23  20 08 30.965   -23 29 44.55  .98927 1.9536 154.8 22.5 9073  33
2020 08 17 00  20 08 27.415   -23 29 11.02  .98945 1.9536 154.8 22.5 9105  33
2020 08 17 01  20 08 23.870   -23 28 37.49  .98962 1.9535 154.7 22.5 9137  33
2020 08 17 02  20 08 20.329   -23 28 03.94  .98979 1.9535 154.7 22.5 9169  33
2020 08 17 03  20 08 16.793   -23 27 30.40  .98997 1.9535 154.6 22.5 9201  33
2020 08 17 04  20 08 13.261   -23 26 56.84  0.9901 1.9534 154.6 22.5 9233  33
2020 08 17 05  20 08 09.733   -23 26 23.28  0.9903 1.9534 154.5 22.5 9265  33
2020 08 17 06  20 08 06.210   -23 25 49.72  0.9905 1.9534 154.5 22.5 9298  33
2020 08 17 07  20 08 02.691   -23 25 16.15  0.9907 1.9534 154.4 22.5 9330  33
2020 08 17 08  20 07 59.176   -23 24 42.57  0.9908 1.9533 154.4 22.5 9362  34
2020 08 17 09  20 07 55.666   -23 24 08.99  0.9910 1.9533 154.3 22.5 9395  34